User: anonymous   Login
Location: Sungai Kamana Besar
(2.6333°N, 113.4333°E)
Time: 12:19:56
(UTC+00:00)
Language:

BREEZE-M TANK - Orbit

View from above orbital plane
View from above orbital plane
View from above satellite
View from above satellite

Ground track
Ground track

The orbit data is extracted from the following two-line orbital elements,

1 37750U 11035C   22268.31924418 -.00000026  00000-0  26648-4 0  9993
2 37750  45.1633 273.3762 6351881  72.8781 344.2443  3.30947338135105
Epoch (UTC): 25 September 2022 07:39:42
Eccentricity: 0.6351881
inclination: 45.1633°
perigee height: 561 km
apogee height: 24724 km
right ascension of ascending node: 273.3762°
argument of perigee: 72.8781°
revolutions per day: 3.30947338
mean anomaly at epoch: 344.2443°
orbit number at epoch: 13510

The dashed part of the orbit path shows where the satellite is in the earth's shadow,  

DLR